Погода в Кариесе

Греция     40°15′25″N   24°14′44″E
темп.,
°C
ветер,
м/с
пор.,
м/с
влажн.,
%
обл.,
%
осадки,
мм/ч
давл.,
гПа
погр.,
м
26 февраля, пт
пт2623:00+13всв34770 0.0 1033412
02:00+13всв34770 0.0 1032440
05:00+12всв44830 0.0 1031355
08:00+11всв33844 0.0 1030288
11:00+12в33810 0.0 1030290
14:00+12вюв22780 0.0 1027256
17:00+13ююв11760 0.0 1025128
20:00+13ююв11770 0.0 102594
27 февраля, сб
сб2723:00+13ююв11760 0.0 1024157
02:00+12всв00760 0.0 1023114
05:00+12зюз11760 0.0 1021155
08:00+13з11760 0.0 1021170
11:00+14ю01720 0.0 1020209
14:00+14ююв11700 0.0 1018252
17:00+14ююв21680 0.0 1018199
20:00+14ююз11800 0.0 101923
28 февраля, вс
вс2823:00+14ссв12780 0.0 102023
02:00+14св44770 0.0 1021184
05:00+12всв1416715 0.1 1022924
08:00+10св13148048 1.3 10241032
11:00+10всв111273100 1.0 10261119
14:00+11св9106299 1.0 10261195
17:00+11св9106082 0.0 10271520
20:00+10св796560 0.1 10291300
1 марта, пн
пн123:00+10св8865100 0.2 10311375
02:00+9всв886787 0.3 10311115
05:00+9всв666691 0.0 1031974
08:00+9в546784 0.0 1031897
11:00+9в446860 0.0 1031894
14:00+9в436845 0.1 1030687
17:00+9в33684 0.0 1029542
20:00+9вюв22642 0.0 1031510
2 марта, вт
вт223:00+9всв135819 0.0 1033855
02:00+9всв567559 0.2 1033809
05:00+9всв776698 0.1 10331065
08:00+9всв786096 0.2 10341115
11:00+9всв666136 0.0 10351098
14:00+9в446219 0.0 1034787
17:00+9в33610 0.0 1033474
20:00+10в44605 0.0 10341030